Tracking 25709 objects as of 24-May-2022
HD Live streaming from Space Station
objects crossing your sky now

SL-6 R/B(2)

Track SL-6 R/B(2) now!


NORAD ID: 24764
Int'l Code: 1997-015D
Perigee: 2,105.6 km
Apogee: 37,820.0 km
Inclination: 65.4 °
Period: 708.8 minutes
Semi major axis: 26333 km
RCS: 5.7641 m2 (large)
Launch date: April 9, 1997
Source: Commonwealth of Independent States (former USSR) (CIS)
Launch site: PLESETSK MISSILE AND SPACE COMPLEX (PKMTR)

Note: This is a ROCKET BODY
aabbcc
Your satellite tracking list
Your tracking list is empty




NASA's NSSDC Master Catalog

Two Line Element Set (TLE):
1 24764U 97015D   22143.40735133 -.00000818  00000-0  00000-0 0  9991
2 24764  65.4207 198.6171 6781109 158.1113 256.4288  2.03157378186347
Source of the keplerian elements: AFSPC